TimeCST,TemperatureF,Dew PointF,Humidity,Sea Level PressureIn,VisibilityMPH,Wind Direction,Wind SpeedMPH,Gust SpeedMPH,PrecipitationIn,Events,Conditions,WindDirDegrees,DateUTC
12:55 AM,35.1,30.0,82,29.65,10.0,WNW,13.8,-,N/A,,Partly Cloudy,290,2013-02-18 06:55:00
1:55 AM,36.0,30.9,82,29.64,10.0,WNW,16.1,-,N/A,,Overcast,290,2013-02-18 07:55:00
2:42 AM,35.6,30.2,81,29.61,10.0,WNW,16.1,-,N/A,,Overcast,290,2013-02-18 08:42:00
2:55 AM,36.0,30.9,82,29.65,10.0,WNW,17.3,-,N/A,,Overcast,290,2013-02-18 08:55:00
3:55 AM,35.1,30.9,85,29.67,10.0,WNW,23.0,-,N/A,,Overcast,300,2013-02-18 09:55:00
4:02 AM,35.6,30.2,81,29.64,10.0,WNW,23.0,-,N/A,,Mostly Cloudy,300,2013-02-18 10:02:00
4:50 AM,33.8,28.4,81,29.65,10.0,NW,26.5,36.8,N/A,,Overcast,310,2013-02-18 10:50:00
4:55 AM,34.0,28.9,82,29.69,10.0,NW,27.6,36.8,N/A,,Overcast,310,2013-02-18 10:55:00
5:55 AM,28.9,21.9,75,29.72,10.0,NNW,34.5,40.3,N/A,,Mostly Cloudy,330,2013-02-18 11:55:00
6:55 AM,25.0,19.0,78,29.78,10.0,NNW,24.2,34.5,N/A,,Overcast,340,2013-02-18 12:55:00
7:55 AM,21.0,15.1,78,29.84,10.0,NNW,27.6,38.0,0.00,,Mostly Cloudy,330,2013-02-18 13:55:00
8:55 AM,19.9,12.9,74,29.88,10.0,NNW,27.6,34.5,N/A,,Mostly Cloudy,330,2013-02-18 14:55:00
9:03 AM,19.4,12.2,74,29.83,10.0,NW,25.3,35.7,N/A,,Scattered Clouds,320,2013-02-18 15:03:00
9:55 AM,19.9,12.9,74,29.90,10.0,NNW,31.1,36.8,N/A,,Mostly Cloudy,330,2013-02-18 15:55:00
10:55 AM,19.0,10.9,71,29.94,10.0,NNW,31.1,43.7,0.00,,Mostly Cloudy,330,2013-02-18 16:55:00
11:55 AM,19.0,10.9,71,29.97,4.0,NNW,25.3,35.7,0.00,Snow,Light Snow,330,2013-02-18 17:55:00
12:03 PM,19.4,12.2,74,29.91,1.8,NNW,28.8,39.1,0.00,Snow,Light Snow,330,2013-02-18 18:03:00
12:38 PM,17.6,12.2,79,29.91,2.5,NNW,29.9,40.3,0.00,Snow,Light Snow,340,2013-02-18 18:38:00
12:55 PM,18.0,12.9,81,29.96,0.5,NNW,28.8,39.1,0.00,Snow,Snow,340,2013-02-18 18:55:00
1:03 PM,17.6,12.2,79,29.92,0.5,NNW,29.9,39.1,0.00,Snow,Snow,340,2013-02-18 19:03:00
1:08 PM,17.6,12.2,79,29.92,1.0,NNW,27.6,38.0,0.00,Snow,Light Snow,340,2013-02-18 19:08:00
1:19 PM,17.6,12.2,79,29.92,0.8,NNW,27.6,35.7,0.00,Snow,Light Snow,340,2013-02-18 19:19:00
1:46 PM,17.6,10.4,73,29.92,1.0,NNW,33.4,38.0,0.00,Snow,Light Snow,330,2013-02-18 19:46:00
1:55 PM,17.1,10.9,77,29.98,0.8,NNW,31.1,40.3,0.00,Snow,Light Snow,330,2013-02-18 19:55:00
2:06 PM,17.6,10.4,73,29.93,1.0,NNW,27.6,33.4,0.00,Snow,Light Snow,330,2013-02-18 20:06:00
2:14 PM,17.6,12.2,79,29.94,0.8,NNW,26.5,34.5,0.00,Snow,Light Snow,330,2013-02-18 20:14:00
2:35 PM,15.8,10.4,79,29.94,1.2,NNW,31.1,38.0,0.00,Snow,Light Snow,340,2013-02-18 20:35:00
2:48 PM,17.6,10.4,73,29.95,3.0,NNW,29.9,40.3,0.00,Snow,Light Snow,330,2013-02-18 20:48:00
2:55 PM,17.1,10.0,74,30.01,1.8,NW,33.4,39.1,0.00,Snow,Light Snow,320,2013-02-18 20:55:00
3:03 PM,17.6,8.6,68,29.96,3.0,NNW,26.5,39.1,0.00,Snow,Light Snow,340,2013-02-18 21:03:00
3:55 PM,17.1,9.0,71,30.02,10.0,NNW,26.5,33.4,0.00,,Mostly Cloudy,330,2013-02-18 21:55:00
4:55 PM,15.1,7.0,70,30.05,10.0,NNW,26.5,34.5,0.00,,Overcast,340,2013-02-18 22:55:00
5:55 PM,12.9,7.0,77,30.10,8.0,North,19.6,29.9,N/A,,Overcast,350,2013-02-18 23:55:00
6:55 PM,10.9,3.0,70,30.12,10.0,NNW,21.9,28.8,0.00,,Overcast,340,2013-02-19 00:55:00
7:39 PM,8.6,1.4,73,30.07,10.0,NNW,23.0,-,N/A,,Scattered Clouds,340,2013-02-19 01:39:00
7:55 PM,8.1,1.9,76,30.15,10.0,NNW,23.0,-,N/A,,Clear,340,2013-02-19 01:55:00
8:55 PM,7.0,-0.0,73,30.17,10.0,NNW,28.8,32.2,N/A,,Clear,330,2013-02-19 02:55:00
9:47 PM,6.8,-0.4,72,30.10,10.0,NW,26.5,33.4,N/A,,Mostly Cloudy,320,2013-02-19 03:47:00
9:55 PM,6.1,-0.9,73,30.18,10.0,NW,26.5,-,N/A,,Mostly Cloudy,320,2013-02-19 03:55:00
10:55 PM,6.1,-0.9,73,30.19,10.0,NW,29.9,38.0,N/A,,Overcast,320,2013-02-19 04:55:00
11:55 PM,5.0,-2.0,73,30.22,10.0,NNW,26.5,35.7,N/A,,Overcast,330,2013-02-19 05:55:00